Simultaneous Nadir Overpasses (SNOs) Predictions

Prediction of SNOs between GOES-16 and NPP Satellite Orbit:

Table of predicted SNOs for the next 14.0 days since TLE Epoch: 5/29/2021
Index Date Time (GOES-16) GOES-16 Lat,Lon NPP Lat,Lon Distance(km) Time Diff (sec)
1 05/30/2021 06:44:28 -0.01, -75.20 0.94, -79.45 484.42 80
2 05/31/2021 06:25:44 -0.00, -75.21 -0.10, -74.93 32.80 80
3 06/02/2021 18:26:17 -0.00, -75.24 -0.11, -75.70 52.04 80
4 06/03/2021 18:10:14 -0.01, -75.26 0.93, -71.17 465.95 80
5 06/05/2021 06:29:22 -0.00, -75.28 0.28, -76.44 132.84 80
6 06/06/2021 06:10:38 0.00, -75.30 -0.76, -71.92 385.36 80
7 06/07/2021 18:32:36 0.01, -75.33 -0.42, -77.22 215.85 80
8 06/08/2021 18:16:32 0.01, -75.35 0.62, -72.70 302.68 80
9 06/10/2021 06:35:41 -0.02, -75.38 0.59, -77.97 295.29 80
10 06/11/2021 06:19:37 -0.01, -75.40 -0.46, -73.44 223.31 80
